Regional Weather Roundup
Issued by NWS

Home | Current Version | Previous Version | Text Only | Print | Product List | Glossary Off
Versions: 1 2 3 4 5 6 7 8 9 10 11 12 13 14 15 16 17 18 19 20 21 22 23 24 25 26 27 28 29 30 31 32 33 34 35 36 37 38 39 40 41 42 43 44 45 46 47 48 49 50

436
ASUS45 KBOU 040607
RWRCO

WEATHER ROUNDUP FOR COLORADO
NATIONAL WEATHER SERVICE DENVER/BOULDER CO
1200 AM MDT WED MAY 04 2016

NOTE: "FAIR" INDICATES FEW OR NO CLOUDS BELOW 12000 FEET WITH NO
SIGNIFICANT WEATHER AND/OR OBSTRUCTIONS TO VISIBILITY.

COZ001>005-013-030-031-040700-
...NORTHWEST COLORADO...

CITY           SKY/WX    TMP DP  RH WIND       PRES   REMARKS
CRAIG          FAIR      40  33  76 CALM      30.28S
HAYDEN         FAIR      46  28  49 SE3       30.29S
MEEKER         FAIR      46  30  53 E7        30.29S
MOUNT WERNER   NOT AVBL
STEAMBOAT SPGS FAIR      46  30  55 CALM      30.31S
WALDEN         FAIR      32  27  80 SE8       30.39R WCI  25
$$

COZ006>008-011-040700-
...WEST CENTRAL VALLEYS...

CITY           SKY/WX    TMP DP  RH WIND       PRES   REMARKS
GRAND JUNCTION FAIR      50  37  61 E6        30.18R
MONTROSE       FAIR      51  30  44 SE10      30.26R
EAGLE          FAIR      45  27  49 CALM      30.33R
RIFLE          FAIR      47  32  56 E7        30.24R
DELTA          NOT AVBL
NUCLA          NOT AVBL
$$

COZ017>023-064>068-040700-
...SOUTHWEST COLORADO...

CITY           SKY/WX    TMP DP  RH WIND       PRES   REMARKS
DURANGO        FAIR      45  36  70 N5        30.29R
CORTEZ         FAIR      43  31  62 NE7       30.27R
PAGOSA SPRINGS FAIR      42  31  66 CALM      30.36R
TELLURIDE      FAIR      42  26  54 SE6       30.42R
WOLF CREEK PAS FAIR      32  23  69 SW14      30.55S WCI  22
$$

COZ009-010-012-014-032>034-037-058>063-040700-
...CENTRAL COLORADO...

CITY           SKY/WX    TMP DP  RH WIND       PRES   REMARKS
ASPEN          FAIR      41  24  51 SW7       30.35R
BUENA VISTA    FAIR      37  26  66 NW5       30.38S
COPPER MTN     NOT AVBL
BERTHOUD PASS  FAIR      28  19  69 NW16      30.54R WCI  17
COTTONWOOD PAS FAIR      43  10  26 W5        30.45R
GUNNISON       FAIR      41  21  45 CALM      30.38R
KREMMLING      FAIR      36  25  64 CALM      30.36S
LEADVILLE      FAIR      28  16  60 NE3       30.44R
MONARCH PASS   FAIR      34  12  40 SE7       30.63R WCI  28
SALIDA         FAIR      43  25  50 W8        30.44R
SUNLIGHT       FAIR      39  21  48 CALM      30.51S
WILKERSON PASS FAIR      32  19  59 S5        30.53R WCI  27
$$

COZ069>075-040700-
...SAN LUIS VALLEY/SANGRE DE CRISTO MOUNTAINS...

CITY           SKY/WX    TMP DP  RH WIND       PRES   REMARKS
ALAMOSA        FAIR      41  27  57 S9        30.34R
LA VETA PASS   FAIR      34  21  60 NE7       30.46R WCI  28
SAGUACHE       FAIR      41  23  48 NW6       30.37R
$$

COZ035-036-038>040-040700-
...NORTHERN COLORADO FRONT RANGE...

CITY           SKY/WX    TMP DP  RH WIND       PRES   REMARKS
DENVER INTL AP FAIR      50  32  50 SW8       30.26R
DMNS CITY PARK   N/A     49  31  49 E8        30.26S
AURORA         FAIR      48  32  54 SW8       30.28R
FRONT RANGE AP NOT AVBL
ERIE MUNI ARPT FAIR      44  35  71 CALM      30.26R
BOULDER MUN AP FAIR      54  30  40 W8        30.25S
CENTENNIAL     FAIR      44  32  62 SW5       30.28S
BROOMFIELD     FAIR      48  32  53 W12       30.27S
FORT COLLINS   FAIR      50  34  53 N5        30.25S
LONGMONT       FAIR      50  33  51 W7        30.27S
$$

COZ041-046-047-076>085-087-088-040700-
...PIKES PEAK/PALMER DIVIDE AND SOUTHERN FOOTHILLS...

CITY           SKY/WX    TMP DP  RH WIND       PRES   REMARKS
COLO. SPRINGS  FAIR      47  27  45 NW9       30.31S
A. F. ACADEMY  FAIR      37  28  70 N10       30.32R
SCHRIEVER AFB  NOT AVBL
ELLICOTT       FAIR       1 N/A N/A N3        30.29R
FALCON         FAIR      39  30  69 NW6       30.34R
FORT CARSON    FAIR      44  28  55 NW8       30.28R
LIMON          FAIR      38  35  89 NW5       30.25S
MONUMENT HILL  FAIR      37  30  75 SW10      30.34S
TRINIDAD       FAIR      41  32  70 W12       30.29S
$$

COZ042>045-048>051-090-091-040700-
...NORTHEAST COLORADO...

CITY           SKY/WX    TMP DP  RH WIND       PRES   REMARKS
GREELEY ARPT   FAIR      43  34  70 W3        30.24R
AKRON          FAIR      46  29  51 W6        30.20R
BURLINGTON     FAIR      42  34  73 W9        30.17S
WRAY           NOT AVBL
STERLING       FAIR      43  36  75 CALM      30.17S
HOLYOKE        NOT AVBL
FORT MORGAN    FAIR      53  29  40 CALM      30.21S
$$

COZ086-089-092>099-040700-
...SOUTHEAST COLORADO...

CITY           SKY/WX    TMP DP  RH WIND       PRES   REMARKS
PUEBLO         FAIR      49  35  58 W7        30.24S
LA JUNTA       FAIR      49  37  63 NW7       30.21R
LAMAR          FAIR      42  36  79 S8        30.16S
SPRINGFIELD      N/A     42  33  70 W6        30.20R
$$




USA.gov is the U.S. government's official web portal to all federal, state and local government web resources and services.